Temp
50 50 50 50 50 49 49 50 50 50 50 49 49 49 49 49 48 48 48 49 49 49 49 49 49 49 49 49 49 48 48 48 49 50 52 51 51 51 52 52 52 51 50 49 48 47 46 46 45 45 45 45 43 42 41 41 41 41 42 41 41 40 40 40 40 40 40 39 38
50 50 50 51 50 50 50 50 50 50 50 49 49 49 49 49 48 48 47 48 48 48 48 49 49 49 49 49 48 48 48 49 50 51 51 51 51 52 52 52 52 51 51 49 48 47 47 46 46 46 45 44 43 42 42 42 42 41 41 41 40 40 40 40 40 39 39 38 37
50 50 50 50 50 50 49 49 49 49 49 49 49 49 49 48 48 48 47 47 47 47 48 48 48 48 48 48 48 48 49 49 50 50 51 51 51 51 51 51 51 51 51 49 48 47 47 46 47 47 47 46 44 44 43 42 43 42 41 40 41 41 41 41 40 39 39 39 38
50 50 50 49 49 49 49 49 49 49 49 49 49 49 49 48 48 48 47 47 47 47 47 47 48 48 48 48 48 48 49 50 51 51 51 50 50 50 50 50 50 49 49 48 48 47 46 46 46 47 46 45 44 44 44 43 43 42 41 40 40 41 41 42 40 40 40 39 37
50 50 50 50 49 49 49 49 49 49 49 49 49 49 49 48 48 48 47 47 47 47 47 48 48 48 48 48 48 48 49 51 52 51 50 50 49 49 49 49 49 48 48 48 47 46 46 45 45 45 44 44 44 44 43 43 42 41 41 41 41 41 40 40 39 39 39 39 37
50 50 50 50 50 49 49 49 49 49 49 49 49 49 48 48 48 47 47 47 47 47 48 48 48 48 48 48 48 49 49 49 50 49 49 49 49 49 49 49 48 48 47 47 46 45 45 45 45 44 44 43 43 42 41 41 41 40 40 40 40 39 38 38 38 38 39 39 37
50 49 49 49 49 49 49 49 49 49 49 49 49 48 48 48 48 47 47 47 47 47 48 48 48 47 47 47 47 47 47 47 47 48 48 49 49 50 50 49 48 47 46 46 45 44 44 44 44 45 45 46 43 41 39 39 39 39 39 39 39 38 38 37 38 38 39 38 38
50 50 50 50 50 49 49 49 49 49 49 49 49 48 48 48 48 47 47 47 47 47 47 47 46 46 47 47 47 47 47 47 47 47 48 48 49 49 49 48 47 46 45 45 44 44 43 43 43 43 43 43 42 40 37 37 38 38 38 38 37 37 36 36 36 37 39 39 39
49 49 50 50 50 50 50 50 50 49 49 49 49 48 48 48 47 47 47 46 46 47 46 46 46 46 47 48 48 48 48 48 48 48 49 49 49 48 48 47 46 45 44 44 44 43 43 42 42 41 41 41 41 39 37 36 37 37 37 37 36 36 35 35 36 36 37 39 39
49 49 49 49 49 50 50 50 50 49 49 49 48 48 48 48 47 47 46 46 46 46 46 45 46 46 47 48 48 48 49 49 49 49 49 49 49 48 47 46 46 45 45 44 43 43 43 42 41 39 38 37 37 37 36 36 37 37 37 37 37 37 35 35 35 36 38 39 39
49 49 49 49 49 50 50 49 49 49 49 48 48 48 48 48 47 47 46 46 46 45 45 46 46 47 47 48 48 49 49 49 49 49 49 49 49 48 47 46 46 45 44 43 43 43 42 42 40 39 38 37 37 37 37 36 37 37 36 35 36 37 36 36 36 36 37 38 38
49 49 49 49 49 49 49 49 49 49 48 48 47 47 47 47 46 46 46 46 45 45 45 46 47 47 48 48 48 49 49 49 49 49 49 48 47 46 46 45 45 45 44 43 43 42 42 41 40 39 39 37 36 36 37 36 36 36 36 36 36 37 37 37 36 36 36 36 37
49 49 49 49 49 49 49 48 48 48 47 47 47 47 46 46 46 46 46 45 45 45 45 46 47 47 47 47 48 49 49 49 49 49 48 47 46 45 44 44 44 43 43 42 42 42 41 40 40 39 39 38 37 37 38 37 37 37 37 37 37 37 38 38 37 36 36 36 37
49 49 49 49 49 49 48 48 48 47 47 47 47 46 46 46 46 46 46 45 45 45 46 46 46 47 47 47 47 48 48 48 48 47 47 46 44 43 42 42 42 42 41 40 40 41 41 40 39 39 39 39 38 38 38 37 38 38 38 38 38 38 38 38 37 37 37 37 38
49 49 49 49 48 48 48 47 47 47 47 46 46 46 46 46 47 46 46 46 46 46 46 46 46 46 47 47 46 47 47 47 46 46 45 44 42 41 41 41 41 40 40 40 40 40 40 40 39 39 39 39 39 38 37 37 38 38 39 39 39 39 39 38 37 37 37 37 37
48 48 48 48 48 48 47 47 47 47 46 46 46 46 46 46 46 46 46 46 46 46 45 45 45 45 46 46 46 45 45 45 44 44 43 42 41 41 41 41 40 40 40 39 39 39 39 39 39 39 39 39 39 39 38 38 38 38 38 39 39 39 39 39 38 37 37 37 38
48 48 48 48 48 47 47 47 47 46 46 46 46 46 46 46 46 46 47 46 46 45 45 45 45 45 45 45 45 45 44 43 43 42 42 41 41 41 41 41 41 40 40 40 40 39 39 38 38 38 38 39 39 38 38 38 38 38 38 38 38 38 39 40 39 38 38 38 39
48 48 48 48 47 47 47 47 46 46 46 46 46 46 46 46 46 46 47 46 46 45 45 45 45 44 44 44 44 44 44 43 42 42 41 41 41 41 41 41 41 40 40 40 40 40 40 39 38 38 38 38 38 38 38 38 38 38 38 38 38 38 38 39 39 39 38 39 40
48 48 47 47 46 46 46 46 46 46 46 46 46 46 46 46 46 46 46 46 46 46 45 44 44 44 44 44 43 44 45 43 42 42 41 41 41 41 41 41 41 40 40 40 40 40 39 39 38 38 38 37 37 37 38 38 38 38 38 38 38 38 39 39 39 39 39 39 40
47 46 46 45 45 45 45 45 46 46 46 46 46 46 46 46 46 46 46 46 46 45 45 44 44 44 43 43 43 43 44 43 42 42 41 41 41 41 41 41 40 40 40 40 39 39 39 38 38 38 38 38 38 37 37 37 37 38 38 38 39 39 39 40 40 40 39 39 39
46 45 45 44 44 44 44 45 45 45 45 45 45 45 46 46 46 46 46 46 45 45 44 44 44 43 43 43 43 42 42 43 41 41 41 41 41 41 41 41 40 40 39 39 38 38 38 38 38 38 38 39 38 38 38 38 38 38 38 39 39 39 39 40 40 40 39 38 38
45 45 44 44 43 43 43 44 44 44 43 44 44 45 45 46 46 46 45 44 44 43 43 43 43 43 43 42 42 41 41 41 40 40 40 41 41 41 41 40 40 39 39 38 38 38 38 38 38 38 38 38 38 39 39 40 39 39 38 38 38 39 39 39 39 39 39 39 38
44 44 44 44 43 43 43 43 42 42 42 42 44 44 45 46 45 44 43 42 43 43 43 42 42 42 42 42 41 41 40 40 39 40 40 40 40 40 40 39 39 39 39 38 38 38 38 38 38 37 37 37 38 38 39 40 40 39 38 38 38 38 38 38 38 38 38 38 37
42 43 43 44 43 42 42 42 41 41 42 43 44 45 45 45 43 42 41 41 41 41 41 41 41 41 40 40 40 40 40 40 40 39 39 39 39 38 38 38 39 39 39 39 40 41 40 39 38 38 38 38 38 38 38 38 38 37 37 37 37 37 37 36 37 37 38 39 38
40 41 42 42 42 41 41 41 41 41 42 43 44 44 44 42 41 40 39 40 40 40 40 40 40 39 39 39 38 39 39 40 39 39 38 38 37 37 37 37 38 38 39 42 47 49 48 46 43 40 39 38 38 37 37 37 37 36 36 37 37 37 37 36 36 36 37 39 39
40 40 41 41 41 41 40 40 40 41 41 43 43 43 42 41 40 39 39 39 39 39 39 39 38 39 39 38 37 37 38 38 38 38 38 37 37 37 36 36 37 37 39 45 51 54 54 52 49 45 40 37 38 38 38 37 36 36 36 36 37 37 36 36 36 36 36 36 37
40 40 40 40 40 40 40 40 40 41 41 42 41 40 40 39 38 38 39 39 38 38 37 37 38 40 41 38 37 37 37 36 36 37 37 37 37 37 36 36 36 38 41 48 53 55 56 55 53 50 45 39 39 38 38 36 36 36 36 35 35 35 35 36 36 36 36 36 35
40 40 40 39 40 40 39 39 39 40 40 40 39 38 38 37 37 38 38 38 37 37 37 36 38 38 38 36 37 37 36 35 35 35 35 36 37 37 36 36 36 39 44 52 55 56 56 56 55 54 50 43 39 37 37 36 36 35 34 34 34 34 34 34 35 35 35 35 35
40 40 40 40 40 39 39 39 39 39 39 38 37 37 37 37 37 37 37 37 37 36 36 35 37 37 35 36 36 35 35 35 34 34 35 35 36 36 36 37 37 42 48 55 56 56 56 56 56 55 54 50 40 36 35 36 36 35 34 33 33 33 33 33 34 34 34 35 34
40 40 40 40 40 39 39 39 40 39 38 37 37 37 37 37 37 37 37 37 36 36 36 35 36 36 36 35 35 35 34 34 34 35 36 37 37 37 37 39 38 41 47 55 55 56 56 56 55 55 55 53 43 37 34 34 34 34 34 33 32 32 33 33 33 34 33 33 33
40 40 40 40 40 40 40 39 39 38 38 38 37 37 37 37 37 37 37 36 37 38 38 36 36 37 36 35 35 36 36 35 35 36 37 38 40 40 38 36 35 39 46 54 55 55 55 55 55 55 54 54 44 37 33 33 33 32 32 32 32 32 33 33 33 33 33 32 32
40 40 40 41 40 40 40 39 38 38 37 37 37 37 37 37 37 37 37 37 38 39 39 37 38 38 38 37 36 36 36 36 36 36 36 37 37 36 35 35 35 39 46 54 55 55 55 55 55 54 54 54 45 37 32 32 32 32 32 32 32 33 33 34 33 33 33 32 32
40 40 40 41 40 40 39 39 38 38 37 37 37 38 38 38 38 38 38 38 39 39 39 39 40 40 39 38 38 37 36 36 37 38 39 38 36 35 35 36 35 39 46 54 55 55 55 55 55 54 54 54 44 36 31 31 31 31 31 31 31 32 33 33 33 33 33 33 32
40 40 40 41 41 40 39 38 38 38 38 38 38 39 39 39 39 39 39 40 39 39 39 40 41 40 40 38 38 38 38 39 37 36 35 35 34 35 36 34 34 40 48 54 55 55 55 55 55 54 54 53 42 35 31 31 31 31 31 31 31 31 32 33 33 33 33 33 33
40 40 40 40 41 40 39 39 39 39 39 39 39 39 39 40 40 40 41 42 41 40 39 39 39 38 38 37 36 37 38 38 34 33 33 33 34 36 37 35 35 42 50 54 55 55 55 55 55 55 53 48 38 33 31 31 31 31 31 31 31 32 32 33 33 33 33 34 34
41 41 41 41 41 40 40 39 39 40 40 40 40 40 40 40 41 41 42 45 43 41 39 39 38 38 38 37 36 37 38 35 33 33 33 34 34 35 35 34 35 42 49 54 55 55 55 55 55 55 52 43 35 31 31 31 31 30 30 30 31 32 32 33 33 33 33 33 33
42 42 42 42 41 41 41 41 41 41 41 41 41 40 40 41 41 42 43 45 42 41 40 39 39 38 38 37 36 36 36 34 34 34 34 36 36 35 34 34 33 38 45 52 54 55 55 55 55 53 48 38 33 31 31 30 30 30 30 30 31 31 31 32 32 32 32 32 34
43 43 43 43 43 43 42 42 42 42 43 42 41 41 41 41 41 42 43 45 42 41 40 39 39 38 38 37 36 35 34 34 36 36 35 36 35 35 34 35 33 36 41 50 53 54 55 55 55 53 48 36 33 31 31 30 30 30 31 30 30 30 31 30 30 31 32 33 39
43 44 45 44 44 44 43 43 43 44 44 42 42 42 42 42 42 42 44 45 42 41 40 39 39 39 38 38 37 36 35 34 37 37 37 35 35 37 38 36 34 36 40 48 52 54 54 54 54 54 50 38 33 31 31 30 30 30 30 29 29 30 30 30 30 30 31 33 42
45 45 45 45 45 45 45 44 45 44 44 43 43 43 42 43 43 44 44 44 41 41 41 40 40 39 40 42 39 37 36 35 36 37 38 37 38 42 44 38 35 35 40 47 52 53 54 54 54 54 50 38 32 31 31 30 30 30 30 29 29 30 30 30 30 30 31 32 39
46 46 46 46 46 46 46 45 45 44 44 43 43 43 44 44 45 44 43 41 41 41 41 41 40 40 41 44 40 38 37 36 36 37 38 40 41 44 46 38 35 34 37 43 49 52 53 53 54 54 51 39 32 30 31 30 31 31 31 29 29 29 30 30 30 31 31 32 33
MSLP
1019.78 1019.98 1020.22 1020.38 1020.54 1020.70 1020.82 1020.90 1020.98 1021.10 1021.18 1021.26 1021.50 1021.70 1021.90 1022.10 1022.34 1022.54 1022.74 1022.86 1022.98 1023.10 1023.26 1023.46 1023.58 1023.70 1023.86 1023.98 1024.14 1024.26 1024.38 1024.50 1024.50 1024.46 1024.46 1024.42 1024.38 1024.38 1024.34 1024.30 1024.26 1024.42 1024.70 1025.02 1025.30 1025.58 1025.82 1025.94 1026.02 1026.10 1026.18 1026.22 1026.26 1026.34 1026.38 1026.34 1026.34 1026.34 1026.38 1026.42 1026.50 1026.54 1026.62 1026.70 1026.82 1026.90 1026.98 1027.10 1027.14
1019.90 1020.10 1020.26 1020.42 1020.54 1020.70 1020.82 1020.98 1021.10 1021.26 1021.34 1021.42 1021.58 1021.74 1021.94 1022.14 1022.42 1022.70 1022.86 1022.98 1023.10 1023.22 1023.34 1023.54 1023.66 1023.86 1024.06 1024.18 1024.26 1024.34 1024.38 1024.46 1024.50 1024.50 1024.46 1024.42 1024.38 1024.34 1024.26 1024.26 1024.38 1024.58 1024.90 1025.18 1025.42 1025.62 1025.78 1025.86 1025.98 1026.10 1026.18 1026.26 1026.26 1026.34 1026.38 1026.38 1026.38 1026.38 1026.50 1026.58 1026.62 1026.66 1026.70 1026.82 1026.90 1026.98 1027.06 1027.14 1027.22
1019.98 1020.18 1020.38 1020.54 1020.62 1020.74 1020.86 1021.02 1021.14 1021.30 1021.46 1021.58 1021.74 1021.90 1022.06 1022.26 1022.50 1022.74 1022.98 1023.10 1023.26 1023.34 1023.46 1023.62 1023.86 1024.06 1024.22 1024.34 1024.42 1024.46 1024.50 1024.50 1024.42 1024.38 1024.38 1024.38 1024.38 1024.38 1024.42 1024.42 1024.54 1024.74 1025.02 1025.30 1025.50 1025.66 1025.74 1025.86 1025.98 1026.06 1026.14 1026.22 1026.26 1026.34 1026.38 1026.38 1026.38 1026.46 1026.58 1026.70 1026.70 1026.70 1026.78 1026.86 1026.94 1026.98 1027.10 1027.14 1027.22
1020.06 1020.26 1020.42 1020.54 1020.70 1020.78 1020.86 1021.02 1021.22 1021.38 1021.54 1021.70 1021.86 1022.02 1022.26 1022.42 1022.62 1022.82 1023.06 1023.26 1023.38 1023.50 1023.62 1023.82 1023.98 1024.22 1024.34 1024.38 1024.54 1024.58 1024.58 1024.54 1024.38 1024.30 1024.30 1024.38 1024.38 1024.42 1024.46 1024.54 1024.70 1024.90 1025.14 1025.38 1025.54 1025.66 1025.82 1025.90 1025.98 1026.10 1026.18 1026.26 1026.30 1026.38 1026.38 1026.42 1026.46 1026.54 1026.70 1026.74 1026.74 1026.78 1026.82 1026.90 1026.94 1026.98 1027.10 1027.18 1027.26
1020.22 1020.38 1020.50 1020.62 1020.70 1020.82 1020.94 1021.10 1021.26 1021.46 1021.62 1021.78 1021.98 1022.18 1022.38 1022.62 1022.82 1023.02 1023.22 1023.38 1023.54 1023.66 1023.82 1023.94 1024.10 1024.26 1024.38 1024.46 1024.54 1024.58 1024.54 1024.46 1024.38 1024.34 1024.38 1024.46 1024.50 1024.46 1024.46 1024.54 1024.78 1025.02 1025.26 1025.50 1025.66 1025.74 1025.82 1025.94 1026.02 1026.10 1026.22 1026.26 1026.30 1026.38 1026.46 1026.50 1026.54 1026.66 1026.74 1026.78 1026.82 1026.82 1026.82 1026.90 1026.98 1027.02 1027.10 1027.18 1027.30
1020.38 1020.54 1020.62 1020.70 1020.82 1020.98 1021.10 1021.26 1021.38 1021.54 1021.70 1021.86 1022.06 1022.26 1022.54 1022.74 1022.98 1023.14 1023.34 1023.54 1023.70 1023.86 1023.98 1024.02 1024.14 1024.26 1024.38 1024.50 1024.54 1024.54 1024.54 1024.54 1024.46 1024.46 1024.46 1024.50 1024.50 1024.46 1024.50 1024.62 1024.82 1025.10 1025.30 1025.54 1025.66 1025.70 1025.78 1025.94 1026.06 1026.18 1026.26 1026.34 1026.38 1026.50 1026.54 1026.58 1026.66 1026.74 1026.86 1026.90 1026.90 1026.86 1026.90 1026.98 1026.98 1027.02 1027.10 1027.22 1027.30
1020.50 1020.62 1020.74 1020.82 1020.98 1021.10 1021.26 1021.38 1021.54 1021.66 1021.82 1021.98 1022.18 1022.38 1022.58 1022.82 1023.06 1023.26 1023.42 1023.62 1023.78 1023.94 1024.02 1024.10 1024.26 1024.34 1024.42 1024.54 1024.58 1024.62 1024.70 1024.70 1024.70 1024.62 1024.58 1024.54 1024.50 1024.50 1024.58 1024.78 1024.94 1025.14 1025.30 1025.38 1025.50 1025.66 1025.78 1025.90 1026.02 1026.18 1026.30 1026.38 1026.50 1026.58 1026.66 1026.70 1026.70 1026.82 1026.94 1026.98 1026.98 1026.94 1026.94 1026.98 1026.98 1027.02 1027.10 1027.22 1027.30
1020.58 1020.70 1020.82 1020.94 1021.06 1021.18 1021.34 1021.46 1021.62 1021.82 1021.98 1022.10 1022.26 1022.50 1022.70 1022.86 1023.10 1023.30 1023.50 1023.66 1023.82 1023.94 1024.02 1024.14 1024.30 1024.38 1024.50 1024.54 1024.70 1024.74 1024.78 1024.82 1024.82 1024.78 1024.70 1024.62 1024.62 1024.70 1024.78 1024.86 1025.06 1025.18 1025.30 1025.38 1025.50 1025.66 1025.82 1025.90 1026.02 1026.22 1026.38 1026.46 1026.54 1026.66 1026.74 1026.78 1026.82 1026.90 1027.02 1027.06 1027.02 1026.98 1026.98 1026.98 1027.02 1027.02 1027.10 1027.14 1027.26
1020.62 1020.78 1020.86 1020.98 1021.14 1021.26 1021.42 1021.54 1021.70 1021.86 1022.02 1022.22 1022.38 1022.58 1022.78 1022.98 1023.18 1023.38 1023.54 1023.74 1023.86 1023.98 1024.10 1024.26 1024.38 1024.46 1024.54 1024.62 1024.70 1024.78 1024.82 1024.82 1024.82 1024.82 1024.74 1024.70 1024.74 1024.82 1024.94 1025.02 1025.18 1025.30 1025.38 1025.46 1025.58 1025.70 1025.82 1025.98 1026.10 1026.26 1026.38 1026.50 1026.58 1026.70 1026.78 1026.82 1026.86 1026.98 1027.06 1027.10 1027.06 1027.06 1027.02 1027.02 1027.06 1027.06 1027.10 1027.14 1027.26
1020.70 1020.82 1020.98 1021.10 1021.26 1021.38 1021.54 1021.70 1021.82 1021.98 1022.10 1022.34 1022.54 1022.70 1022.86 1023.06 1023.26 1023.42 1023.58 1023.74 1023.94 1024.10 1024.22 1024.34 1024.46 1024.54 1024.62 1024.70 1024.70 1024.74 1024.74 1024.70 1024.70 1024.74 1024.74 1024.74 1024.82 1024.94 1025.02 1025.10 1025.22 1025.30 1025.42 1025.54 1025.62 1025.70 1025.82 1025.98 1026.10 1026.30 1026.46 1026.54 1026.70 1026.78 1026.82 1026.86 1026.94 1026.98 1027.06 1027.06 1027.06 1027.10 1027.10 1027.10 1027.06 1027.06 1027.06 1027.10 1027.18
1020.74 1020.90 1021.02 1021.22 1021.34 1021.50 1021.66 1021.82 1021.98 1022.10 1022.26 1022.46 1022.66 1022.82 1022.98 1023.10 1023.34 1023.50 1023.66 1023.82 1023.98 1024.18 1024.34 1024.42 1024.54 1024.58 1024.62 1024.70 1024.70 1024.66 1024.66 1024.70 1024.70 1024.70 1024.74 1024.82 1024.86 1024.94 1025.02 1025.10 1025.18 1025.30 1025.42 1025.54 1025.62 1025.70 1025.82 1025.98 1026.22 1026.38 1026.54 1026.62 1026.70 1026.82 1026.86 1026.90 1026.98 1027.06 1027.10 1027.14 1027.10 1027.10 1027.10 1027.10 1027.10 1027.10 1027.10 1027.10 1027.18
1020.86 1021.02 1021.14 1021.30 1021.46 1021.62 1021.78 1021.94 1022.10 1022.26 1022.38 1022.58 1022.74 1022.90 1023.06 1023.26 1023.42 1023.58 1023.70 1023.90 1024.06 1024.26 1024.38 1024.50 1024.54 1024.54 1024.58 1024.58 1024.62 1024.62 1024.62 1024.66 1024.70 1024.74 1024.82 1024.86 1024.90 1024.98 1025.10 1025.18 1025.26 1025.34 1025.46 1025.58 1025.66 1025.70 1025.86 1026.10 1026.26 1026.42 1026.54 1026.66 1026.74 1026.82 1026.90 1026.98 1027.02 1027.10 1027.14 1027.18 1027.14 1027.10 1027.10 1027.10 1027.10 1027.10 1027.14 1027.14 1027.18
1020.98 1021.14 1021.26 1021.42 1021.54 1021.70 1021.86 1022.02 1022.18 1022.38 1022.54 1022.70 1022.82 1023.02 1023.18 1023.38 1023.50 1023.66 1023.82 1023.98 1024.10 1024.26 1024.42 1024.54 1024.54 1024.50 1024.54 1024.54 1024.54 1024.58 1024.58 1024.66 1024.70 1024.78 1024.82 1024.94 1024.98 1025.10 1025.18 1025.30 1025.38 1025.46 1025.54 1025.62 1025.70 1025.82 1025.94 1026.14 1026.30 1026.46 1026.62 1026.70 1026.82 1026.82 1026.90 1026.98 1026.98 1027.06 1027.10 1027.18 1027.10 1027.10 1027.10 1027.10 1027.10 1027.10 1027.10 1027.18 1027.22
1021.10 1021.22 1021.38 1021.54 1021.66 1021.82 1021.98 1022.10 1022.30 1022.50 1022.66 1022.82 1022.98 1023.14 1023.30 1023.46 1023.62 1023.70 1023.82 1024.02 1024.14 1024.26 1024.38 1024.50 1024.50 1024.50 1024.50 1024.50 1024.54 1024.58 1024.66 1024.70 1024.74 1024.82 1024.94 1024.98 1025.06 1025.14 1025.26 1025.38 1025.46 1025.54 1025.62 1025.70 1025.78 1025.86 1026.02 1026.18 1026.34 1026.50 1026.62 1026.74 1026.82 1026.82 1026.86 1026.94 1026.94 1026.98 1027.02 1027.10 1027.10 1027.10 1027.10 1027.06 1027.10 1027.10 1027.14 1027.18 1027.22
1021.10 1021.26 1021.38 1021.54 1021.70 1021.86 1022.06 1022.26 1022.38 1022.58 1022.78 1022.94 1023.10 1023.26 1023.38 1023.54 1023.66 1023.82 1023.98 1024.10 1024.18 1024.30 1024.38 1024.42 1024.54 1024.54 1024.54 1024.58 1024.66 1024.70 1024.74 1024.82 1024.86 1024.94 1025.02 1025.10 1025.10 1025.22 1025.30 1025.38 1025.54 1025.58 1025.66 1025.78 1025.86 1025.94 1026.02 1026.18 1026.34 1026.46 1026.54 1026.70 1026.78 1026.82 1026.86 1026.90 1026.90 1026.90 1026.90 1026.98 1026.98 1026.98 1026.98 1026.98 1027.06 1027.10 1027.10 1027.18 1027.26
1021.22 1021.34 1021.46 1021.58 1021.78 1021.94 1022.10 1022.26 1022.42 1022.66 1022.82 1022.98 1023.14 1023.30 1023.42 1023.58 1023.70 1023.86 1024.02 1024.14 1024.26 1024.34 1024.38 1024.46 1024.54 1024.62 1024.66 1024.70 1024.78 1024.82 1024.94 1024.98 1024.98 1025.02 1025.10 1025.14 1025.22 1025.30 1025.38 1025.46 1025.54 1025.66 1025.74 1025.82 1025.90 1025.98 1026.06 1026.18 1026.26 1026.38 1026.54 1026.62 1026.70 1026.78 1026.82 1026.82 1026.82 1026.82 1026.82 1026.82 1026.86 1026.86 1026.90 1026.94 1026.98 1027.06 1027.10 1027.10 1027.22
1021.30 1021.42 1021.54 1021.66 1021.82 1021.98 1022.10 1022.26 1022.46 1022.66 1022.82 1022.98 1023.10 1023.26 1023.38 1023.54 1023.74 1023.90 1023.98 1024.10 1024.22 1024.34 1024.42 1024.50 1024.54 1024.62 1024.70 1024.78 1024.82 1024.94 1024.98 1025.02 1025.10 1025.10 1025.18 1025.22 1025.30 1025.38 1025.42 1025.50 1025.58 1025.66 1025.74 1025.82 1025.94 1026.06 1026.14 1026.22 1026.34 1026.42 1026.50 1026.54 1026.66 1026.70 1026.74 1026.74 1026.78 1026.78 1026.78 1026.82 1026.82 1026.82 1026.82 1026.82 1026.86 1026.94 1027.02 1027.06 1027.10
1021.46 1021.54 1021.62 1021.74 1021.82 1021.98 1022.14 1022.30 1022.46 1022.62 1022.78 1022.94 1023.10 1023.22 1023.38 1023.50 1023.66 1023.82 1023.98 1024.06 1024.14 1024.26 1024.38 1024.42 1024.54 1024.62 1024.70 1024.82 1024.86 1024.94 1025.02 1025.06 1025.10 1025.14 1025.18 1025.26 1025.30 1025.38 1025.46 1025.54 1025.58 1025.66 1025.74 1025.82 1025.94 1026.06 1026.18 1026.26 1026.38 1026.46 1026.54 1026.54 1026.62 1026.66 1026.70 1026.70 1026.78 1026.78 1026.82 1026.82 1026.82 1026.82 1026.82 1026.78 1026.82 1026.86 1026.90 1026.98 1026.98
1021.58 1021.66 1021.78 1021.86 1021.98 1022.10 1022.22 1022.34 1022.50 1022.66 1022.78 1022.90 1023.02 1023.18 1023.34 1023.46 1023.62 1023.74 1023.90 1023.98 1024.06 1024.14 1024.26 1024.38 1024.54 1024.62 1024.70 1024.78 1024.86 1024.90 1024.98 1025.02 1025.06 1025.10 1025.14 1025.22 1025.26 1025.38 1025.46 1025.54 1025.62 1025.66 1025.78 1025.82 1025.94 1026.06 1026.14 1026.26 1026.38 1026.42 1026.50 1026.54 1026.62 1026.66 1026.70 1026.74 1026.78 1026.78 1026.82 1026.78 1026.82 1026.78 1026.78 1026.74 1026.74 1026.78 1026.82 1026.82 1026.82
1021.70 1021.82 1021.90 1021.98 1022.10 1022.22 1022.30 1022.42 1022.54 1022.66 1022.78 1022.90 1022.98 1023.14 1023.30 1023.42 1023.54 1023.66 1023.78 1023.90 1023.98 1024.10 1024.26 1024.38 1024.54 1024.66 1024.70 1024.74 1024.82 1024.86 1024.90 1024.98 1025.02 1025.10 1025.14 1025.26 1025.30 1025.38 1025.46 1025.54 1025.62 1025.70 1025.82 1025.90 1025.98 1026.06 1026.18 1026.26 1026.34 1026.38 1026.46 1026.54 1026.62 1026.70 1026.70 1026.74 1026.78 1026.78 1026.74 1026.74 1026.70 1026.70 1026.70 1026.66 1026.66 1026.66 1026.70 1026.70 1026.70
1021.82 1021.90 1021.98 1022.10 1022.22 1022.30 1022.38 1022.50 1022.58 1022.70 1022.82 1022.94 1023.06 1023.14 1023.26 1023.38 1023.54 1023.62 1023.70 1023.82 1023.98 1024.14 1024.30 1024.42 1024.50 1024.54 1024.66 1024.70 1024.82 1024.82 1024.86 1024.90 1024.98 1025.06 1025.14 1025.22 1025.30 1025.38 1025.42 1025.50 1025.62 1025.74 1025.86 1025.94 1026.02 1026.10 1026.18 1026.26 1026.34 1026.38 1026.46 1026.54 1026.58 1026.66 1026.70 1026.70 1026.74 1026.70 1026.70 1026.70 1026.66 1026.62 1026.58 1026.58 1026.58 1026.62 1026.62 1026.66 1026.66
1021.90 1021.98 1022.06 1022.18 1022.30 1022.38 1022.46 1022.58 1022.70 1022.82 1022.90 1023.02 1023.10 1023.22 1023.30 1023.42 1023.54 1023.66 1023.78 1023.90 1024.06 1024.18 1024.30 1024.38 1024.46 1024.50 1024.54 1024.66 1024.74 1024.82 1024.86 1024.94 1025.02 1025.10 1025.14 1025.22 1025.30 1025.38 1025.42 1025.54 1025.66 1025.78 1025.90 1025.98 1026.06 1026.10 1026.18 1026.26 1026.30 1026.38 1026.42 1026.50 1026.54 1026.58 1026.62 1026.62 1026.66 1026.66 1026.62 1026.62 1026.62 1026.58 1026.58 1026.54 1026.58 1026.62 1026.66 1026.70 1026.70
1021.98 1022.06 1022.14 1022.26 1022.38 1022.46 1022.54 1022.70 1022.82 1022.90 1022.98 1023.10 1023.18 1023.30 1023.38 1023.50 1023.66 1023.78 1023.90 1024.02 1024.10 1024.22 1024.30 1024.38 1024.42 1024.50 1024.54 1024.62 1024.70 1024.78 1024.94 1025.02 1025.10 1025.18 1025.26 1025.34 1025.38 1025.46 1025.54 1025.58 1025.70 1025.82 1025.90 1025.98 1026.02 1026.10 1026.14 1026.26 1026.30 1026.38 1026.38 1026.46 1026.50 1026.54 1026.54 1026.54 1026.58 1026.62 1026.66 1026.66 1026.66 1026.62 1026.58 1026.58 1026.62 1026.66 1026.66 1026.66 1026.66
1022.06 1022.14 1022.26 1022.30 1022.42 1022.54 1022.66 1022.74 1022.86 1022.98 1023.10 1023.18 1023.26 1023.38 1023.50 1023.58 1023.74 1023.86 1024.02 1024.10 1024.18 1024.26 1024.34 1024.42 1024.46 1024.54 1024.58 1024.70 1024.78 1024.86 1024.98 1025.10 1025.22 1025.30 1025.38 1025.42 1025.50 1025.54 1025.62 1025.66 1025.70 1025.78 1025.82 1025.86 1025.94 1025.98 1026.06 1026.14 1026.26 1026.30 1026.34 1026.38 1026.42 1026.46 1026.54 1026.54 1026.58 1026.62 1026.62 1026.66 1026.66 1026.66 1026.62 1026.62 1026.58 1026.62 1026.62 1026.58 1026.62
1022.14 1022.26 1022.34 1022.42 1022.54 1022.66 1022.74 1022.82 1022.94 1023.06 1023.10 1023.22 1023.30 1023.38 1023.54 1023.66 1023.82 1023.94 1024.06 1024.18 1024.26 1024.30 1024.38 1024.46 1024.54 1024.66 1024.74 1024.82 1024.90 1024.98 1025.02 1025.14 1025.26 1025.38 1025.46 1025.54 1025.54 1025.62 1025.66 1025.70 1025.74 1025.78 1025.82 1025.78 1025.70 1025.70 1025.82 1025.90 1026.02 1026.14 1026.26 1026.30 1026.34 1026.38 1026.42 1026.46 1026.54 1026.54 1026.58 1026.62 1026.66 1026.66 1026.70 1026.70 1026.70 1026.66 1026.66 1026.62 1026.66
1022.26 1022.34 1022.42 1022.54 1022.58 1022.70 1022.82 1022.90 1022.98 1023.06 1023.14 1023.26 1023.34 1023.50 1023.62 1023.74 1023.86 1023.98 1024.10 1024.22 1024.30 1024.38 1024.46 1024.58 1024.70 1024.78 1024.82 1024.94 1024.98 1025.10 1025.14 1025.22 1025.26 1025.34 1025.42 1025.54 1025.62 1025.66 1025.66 1025.70 1025.74 1025.78 1025.82 1025.70 1025.54 1025.50 1025.54 1025.66 1025.82 1025.94 1026.06 1026.18 1026.22 1026.26 1026.38 1026.42 1026.50 1026.54 1026.54 1026.62 1026.66 1026.70 1026.74 1026.82 1026.78 1026.74 1026.70 1026.70 1026.70
1022.26 1022.38 1022.50 1022.54 1022.66 1022.74 1022.82 1022.90 1022.98 1023.10 1023.18 1023.30 1023.38 1023.54 1023.66 1023.78 1023.90 1023.98 1024.10 1024.26 1024.38 1024.46 1024.54 1024.66 1024.74 1024.82 1024.86 1024.98 1025.10 1025.18 1025.26 1025.34 1025.34 1025.38 1025.42 1025.54 1025.58 1025.66 1025.70 1025.74 1025.70 1025.74 1025.70 1025.58 1025.42 1025.34 1025.38 1025.46 1025.54 1025.70 1025.86 1026.02 1026.10 1026.14 1026.26 1026.34 1026.42 1026.50 1026.54 1026.62 1026.66 1026.70 1026.82 1026.86 1026.86 1026.82 1026.78 1026.74 1026.70
1022.34 1022.38 1022.50 1022.62 1022.70 1022.78 1022.86 1022.98 1023.06 1023.14 1023.26 1023.34 1023.46 1023.54 1023.66 1023.82 1023.94 1024.06 1024.18 1024.30 1024.42 1024.54 1024.66 1024.78 1024.82 1024.86 1024.94 1025.06 1025.14 1025.26 1025.30 1025.34 1025.38 1025.38 1025.42 1025.50 1025.54 1025.66 1025.66 1025.70 1025.66 1025.66 1025.58 1025.42 1025.30 1025.26 1025.22 1025.26 1025.34 1025.46 1025.66 1025.82 1025.94 1026.02 1026.18 1026.30 1026.38 1026.50 1026.58 1026.66 1026.70 1026.78 1026.82 1026.90 1026.90 1026.86 1026.82 1026.82 1026.74
1022.34 1022.42 1022.54 1022.66 1022.74 1022.82 1022.94 1023.02 1023.10 1023.14 1023.26 1023.38 1023.50 1023.58 1023.70 1023.86 1023.98 1024.10 1024.26 1024.38 1024.50 1024.62 1024.74 1024.82 1024.82 1024.94 1025.06 1025.10 1025.18 1025.26 1025.26 1025.34 1025.38 1025.42 1025.46 1025.54 1025.54 1025.62 1025.66 1025.66 1025.62 1025.54 1025.38 1025.26 1025.18 1025.14 1025.14 1025.18 1025.26 1025.30 1025.38 1025.58 1025.90 1026.06 1026.10 1026.26 1026.38 1026.54 1026.62 1026.70 1026.78 1026.82 1026.82 1026.90 1026.90 1026.86 1026.86 1026.82 1026.78
1022.30 1022.38 1022.54 1022.66 1022.74 1022.82 1022.98 1023.02 1023.10 1023.14 1023.26 1023.38 1023.54 1023.66 1023.78 1023.90 1024.02 1024.14 1024.26 1024.38 1024.54 1024.58 1024.70 1024.78 1024.86 1024.98 1025.10 1025.10 1025.14 1025.22 1025.26 1025.34 1025.38 1025.38 1025.46 1025.54 1025.54 1025.62 1025.58 1025.54 1025.54 1025.50 1025.38 1025.22 1025.14 1025.10 1025.10 1025.14 1025.22 1025.26 1025.34 1025.46 1025.82 1026.06 1026.14 1026.30 1026.46 1026.54 1026.66 1026.74 1026.78 1026.82 1026.82 1026.86 1026.86 1026.86 1026.86 1026.82 1026.82
1022.30 1022.38 1022.50 1022.62 1022.74 1022.82 1022.90 1022.98 1023.06 1023.14 1023.30 1023.42 1023.54 1023.66 1023.82 1023.98 1024.10 1024.18 1024.26 1024.38 1024.42 1024.50 1024.58 1024.70 1024.82 1024.94 1024.98 1025.06 1025.10 1025.14 1025.26 1025.30 1025.38 1025.38 1025.38 1025.46 1025.46 1025.50 1025.54 1025.58 1025.54 1025.50 1025.34 1025.22 1025.14 1025.10 1025.10 1025.14 1025.26 1025.30 1025.34 1025.42 1025.82 1026.10 1026.26 1026.38 1026.54 1026.62 1026.70 1026.74 1026.78 1026.78 1026.82 1026.82 1026.82 1026.82 1026.82 1026.82 1026.82
1022.26 1022.34 1022.42 1022.58 1022.70 1022.78 1022.82 1022.94 1023.06 1023.22 1023.34 1023.42 1023.54 1023.66 1023.82 1023.98 1024.06 1024.10 1024.22 1024.26 1024.34 1024.42 1024.54 1024.70 1024.78 1024.82 1024.94 1024.98 1025.02 1025.10 1025.18 1025.26 1025.34 1025.38 1025.38 1025.42 1025.46 1025.54 1025.54 1025.58 1025.54 1025.46 1025.34 1025.18 1025.10 1025.10 1025.10 1025.14 1025.26 1025.30 1025.38 1025.50 1025.90 1026.18 1026.34 1026.46 1026.54 1026.66 1026.70 1026.74 1026.74 1026.74 1026.78 1026.78 1026.78 1026.74 1026.70 1026.70 1026.74
1022.22 1022.30 1022.38 1022.54 1022.66 1022.74 1022.82 1022.98 1023.10 1023.22 1023.34 1023.46 1023.58 1023.66 1023.78 1023.90 1023.98 1024.06 1024.18 1024.26 1024.34 1024.42 1024.50 1024.58 1024.66 1024.74 1024.82 1024.94 1025.02 1025.10 1025.14 1025.22 1025.26 1025.26 1025.30 1025.38 1025.42 1025.50 1025.54 1025.54 1025.50 1025.46 1025.34 1025.18 1025.10 1025.10 1025.10 1025.18 1025.26 1025.34 1025.38 1025.50 1025.94 1026.26 1026.46 1026.54 1026.58 1026.70 1026.70 1026.74 1026.74 1026.74 1026.74 1026.74 1026.70 1026.66 1026.62 1026.54 1026.58
1022.14 1022.26 1022.38 1022.50 1022.58 1022.74 1022.86 1022.98 1023.10 1023.26 1023.38 1023.50 1023.62 1023.70 1023.78 1023.86 1023.98 1024.06 1024.14 1024.18 1024.26 1024.34 1024.38 1024.50 1024.54 1024.58 1024.70 1024.78 1024.86 1024.98 1025.10 1025.14 1025.26 1025.30 1025.38 1025.38 1025.46 1025.46 1025.50 1025.54 1025.46 1025.38 1025.26 1025.14 1025.10 1025.10 1025.10 1025.18 1025.26 1025.34 1025.38 1025.54 1026.02 1026.34 1026.50 1026.54 1026.62 1026.70 1026.70 1026.70 1026.70 1026.70 1026.66 1026.62 1026.58 1026.54 1026.50 1026.42 1026.42
1022.10 1022.26 1022.38 1022.46 1022.54 1022.70 1022.82 1022.98 1023.10 1023.26 1023.38 1023.54 1023.62 1023.66 1023.78 1023.82 1023.90 1023.98 1024.02 1024.10 1024.18 1024.30 1024.38 1024.46 1024.54 1024.54 1024.66 1024.74 1024.86 1024.98 1025.06 1025.18 1025.26 1025.34 1025.38 1025.46 1025.46 1025.42 1025.42 1025.46 1025.42 1025.30 1025.18 1025.10 1025.10 1025.10 1025.10 1025.14 1025.22 1025.26 1025.38 1025.78 1026.14 1026.34 1026.38 1026.54 1026.62 1026.70 1026.70 1026.70 1026.70 1026.62 1026.54 1026.54 1026.50 1026.42 1026.38 1026.34 1026.30
1022.06 1022.18 1022.34 1022.42 1022.54 1022.70 1022.82 1022.94 1023.10 1023.26 1023.38 1023.46 1023.54 1023.66 1023.74 1023.82 1023.82 1023.86 1023.94 1023.98 1024.10 1024.26 1024.38 1024.50 1024.58 1024.62 1024.70 1024.82 1024.90 1024.98 1025.02 1025.10 1025.26 1025.34 1025.38 1025.38 1025.38 1025.42 1025.46 1025.46 1025.46 1025.38 1025.22 1025.10 1025.06 1025.10 1025.10 1025.10 1025.14 1025.22 1025.38 1025.82 1026.14 1026.30 1026.38 1026.50 1026.62 1026.70 1026.70 1026.70 1026.66 1026.54 1026.50 1026.42 1026.38 1026.34 1026.30 1026.26 1026.26
1021.98 1022.10 1022.26 1022.38 1022.50 1022.66 1022.78 1022.90 1023.02 1023.18 1023.26 1023.38 1023.50 1023.58 1023.66 1023.74 1023.82 1023.86 1023.90 1023.98 1024.14 1024.30 1024.42 1024.54 1024.62 1024.70 1024.74 1024.78 1024.86 1024.90 1024.98 1025.06 1025.14 1025.26 1025.26 1025.30 1025.34 1025.38 1025.46 1025.50 1025.50 1025.42 1025.30 1025.14 1025.10 1025.10 1025.10 1025.10 1025.10 1025.22 1025.50 1025.86 1026.06 1026.22 1026.34 1026.50 1026.58 1026.70 1026.70 1026.66 1026.62 1026.54 1026.42 1026.38 1026.30 1026.26 1026.22 1026.18 1026.14
1021.90 1022.02 1022.14 1022.30 1022.46 1022.58 1022.70 1022.82 1022.98 1023.06 1023.18 1023.26 1023.38 1023.46 1023.54 1023.66 1023.74 1023.82 1023.86 1023.90 1024.10 1024.26 1024.42 1024.54 1024.62 1024.66 1024.70 1024.74 1024.82 1024.86 1024.98 1024.98 1025.02 1025.10 1025.18 1025.26 1025.30 1025.38 1025.42 1025.46 1025.50 1025.50 1025.38 1025.22 1025.14 1025.10 1025.10 1025.10 1025.06 1025.10 1025.38 1025.78 1025.98 1026.14 1026.30 1026.42 1026.54 1026.58 1026.58 1026.58 1026.54 1026.46 1026.38 1026.30 1026.26 1026.26 1026.22 1026.10 1025.94
1021.74 1021.86 1022.02 1022.18 1022.34 1022.46 1022.62 1022.70 1022.82 1022.94 1023.06 1023.18 1023.26 1023.38 1023.50 1023.58 1023.66 1023.78 1023.82 1023.82 1023.98 1024.14 1024.30 1024.42 1024.54 1024.54 1024.58 1024.66 1024.78 1024.86 1024.98 1024.98 1024.98 1024.98 1025.10 1025.18 1025.26 1025.26 1025.30 1025.38 1025.46 1025.46 1025.38 1025.26 1025.14 1025.10 1025.10 1025.10 1025.06 1025.06 1025.26 1025.66 1025.86 1026.02 1026.18 1026.34 1026.46 1026.54 1026.54 1026.54 1026.50 1026.38 1026.30 1026.26 1026.26 1026.22 1026.14 1026.06 1025.82
1021.54 1021.66 1021.82 1022.02 1022.14 1022.30 1022.46 1022.58 1022.70 1022.82 1022.94 1023.10 1023.18 1023.30 1023.42 1023.50 1023.54 1023.62 1023.70 1023.82 1023.94 1024.06 1024.18 1024.30 1024.38 1024.42 1024.50 1024.54 1024.70 1024.82 1024.94 1024.98 1024.98 1025.02 1025.02 1025.06 1025.10 1025.06 1025.10 1025.30 1025.38 1025.38 1025.34 1025.22 1025.10 1025.10 1025.10 1025.10 1025.06 1024.98 1025.22 1025.66 1025.78 1025.90 1026.06 1026.26 1026.38 1026.46 1026.50 1026.50 1026.46 1026.38 1026.30 1026.26 1026.22 1026.18 1026.14 1026.06 1025.86
1021.34 1021.50 1021.66 1021.82 1021.98 1022.10 1022.26 1022.42 1022.54 1022.70 1022.82 1022.98 1023.06 1023.18 1023.26 1023.34 1023.46 1023.54 1023.66 1023.82 1023.98 1024.02 1024.10 1024.22 1024.30 1024.38 1024.42 1024.46 1024.58 1024.74 1024.86 1024.98 1025.02 1025.06 1025.02 1024.98 1024.98 1024.98 1024.98 1025.18 1025.30 1025.34 1025.30 1025.22 1025.10 1025.06 1025.06 1025.02 1025.02 1024.98 1025.10 1025.66 1025.74 1025.82 1025.98 1026.10 1026.30 1026.38 1026.42 1026.42 1026.38 1026.38 1026.38 1026.30 1026.22 1026.14 1026.10 1026.02 1025.98
Wind_Speed
7 7 6 6 5 5 4 4 5 5 5 6 6 6 5 5 5 4 4 4 5 5 6 6 5 5 6 7 8 8 8 7 7 7 6 6 5 6 6 7 8 9 9 8 7 6 4 3 3 2 2 1 2 1 1 1 2 3 3 4 3 3 3 4 4 3 3 3 2
8 8 7 7 6 5 5 5 5 5 5 4 5 5 5 5 5 5 4 4 4 4 5 5 5 6 7 7 7 7 7 7 6 6 5 5 5 6 7 8 9 9 9 8 6 5 4 3 3 2 2 1 2 2 1 1 2 3 4 4 3 3 3 4 3 3 3 2 1
9 8 7 6 6 5 5 5 5 6 6 5 5 5 5 5 5 5 4 4 4 4 4 5 5 6 7 7 6 5 5 5 5 5 6 6 6 7 7 8 9 9 8 7 5 4 3 3 3 2 2 2 2 2 2 1 2 3 3 3 2 2 3 3 3 2 2 2 1
8 8 7 6 7 6 6 5 6 7 7 6 6 6 5 5 5 5 5 5 5 5 5 5 6 6 6 6 5 4 4 4 5 6 6 6 7 7 8 8 9 8 7 6 5 4 3 3 2 2 2 3 3 3 2 1 2 2 2 1 1 2 2 3 2 2 2 2 1
8 7 6 6 7 7 6 6 7 8 7 6 6 6 5 5 5 5 5 5 5 5 5 6 6 6 6 6 5 5 4 4 5 6 6 6 6 7 8 9 8 7 6 5 5 4 4 3 3 2 2 3 2 2 1 1 2 2 2 1 1 1 2 2 2 2 2 2 1
7 6 6 6 7 7 7 7 8 8 7 7 7 7 6 5 5 5 5 5 5 5 6 7 7 6 6 5 4 4 4 4 4 5 6 6 6 7 8 9 8 7 6 5 5 4 4 4 3 2 2 2 2 1 1 1 2 2 2 1 1 1 1 2 1 1 2 2 1
7 7 7 7 8 8 8 8 8 8 8 7 8 8 8 7 7 7 6 6 5 5 6 6 6 5 5 4 4 4 4 4 4 5 5 6 6 7 7 7 6 6 5 5 5 5 4 4 3 3 2 2 2 1 1 1 2 3 2 1 1 1 1 1 1 1 2 2 2
7 8 8 8 8 9 9 9 8 8 7 7 8 9 9 8 8 8 7 6 5 5 5 4 5 5 5 6 6 6 5 5 5 5 5 6 6 6 5 5 5 5 5 5 5 5 4 3 3 3 2 2 2 1 1 2 2 3 2 1 0 0 0 1 1 1 2 3 2
8 8 8 8 9 9 9 9 9 8 8 8 8 9 9 9 9 8 7 6 5 5 5 4 5 5 6 7 7 7 6 6 6 6 6 6 6 5 5 4 4 4 4 4 5 5 5 4 3 2 2 2 2 1 1 2 2 2 2 1 0 0 0 0 1 1 2 2 2
8 8 8 8 9 9 9 9 8 9 9 9 9 9 9 9 9 8 6 6 6 6 5 5 6 6 7 7 7 7 6 6 6 6 6 6 6 6 5 4 5 5 5 4 4 5 5 4 3 2 2 1 2 1 1 1 2 2 1 0 0 0 0 0 1 1 1 2 2
8 8 8 8 9 9 9 8 8 8 8 8 8 8 8 9 8 7 6 6 6 6 6 6 7 7 7 7 7 6 6 5 5 6 6 6 6 5 5 5 5 6 5 4 4 4 4 4 3 3 2 1 1 1 1 2 2 2 1 0 0 0 0 0 1 1 1 1 1
8 8 8 8 8 8 8 8 7 7 7 8 8 8 8 7 7 8 8 8 8 7 7 6 7 7 7 6 6 6 5 5 5 5 5 5 4 4 4 4 5 5 5 4 4 3 3 3 3 3 2 1 1 1 1 2 2 2 1 1 1 1 0 0 0 0 1 1 1
8 8 8 8 8 8 8 7 6 6 7 8 7 7 7 7 8 8 8 9 8 7 6 5 5 5 5 5 5 5 4 4 4 4 4 3 3 4 4 5 5 5 5 4 3 3 3 3 3 3 2 1 1 1 1 2 2 2 2 1 1 0 0 0 0 0 1 1 1
8 8 8 8 8 7 7 7 6 6 6 7 7 7 7 7 7 8 8 8 8 7 6 5 5 4 4 4 4 4 3 3 3 2 2 3 3 4 4 4 5 5 4 3 3 4 4 4 3 3 3 2 1 1 1 2 3 3 3 2 1 1 1 1 1 1 1 1 1
8 8 8 8 8 7 6 6 6 6 6 7 6 6 6 6 7 7 7 7 7 7 6 5 4 4 4 4 3 3 3 2 2 2 2 2 3 4 4 4 4 4 4 3 3 3 4 4 4 4 3 3 3 2 2 2 3 3 3 3 2 2 2 1 2 2 2 2 1
8 8 8 8 8 7 7 6 5 5 6 6 6 6 6 6 6 7 7 7 6 6 5 5 5 4 4 4 4 4 3 3 3 2 2 2 3 3 4 5 5 4 4 4 3 3 3 3 3 3 3 4 3 3 3 2 2 3 3 3 3 2 2 2 3 3 3 3 3
8 8 8 8 8 8 7 6 6 6 6 7 7 7 7 6 6 7 7 7 6 6 6 6 5 5 4 5 4 4 4 3 3 3 3 3 3 4 4 5 5 5 5 5 4 3 2 2 2 2 3 3 3 3 2 2 2 2 2 2 2 2 3 3 3 4 4 4 4
8 8 8 8 8 8 8 7 7 7 7 8 8 7 7 7 7 7 7 7 7 7 7 7 6 5 5 5 4 4 4 4 3 3 3 3 4 4 4 5 5 5 5 5 4 4 3 2 2 2 2 2 2 2 1 1 1 1 1 2 2 2 3 3 3 4 4 4 5
7 7 7 7 7 8 8 8 8 8 8 8 8 8 8 8 8 8 7 7 8 8 8 7 6 5 5 5 5 4 4 4 4 4 3 3 4 4 4 4 4 4 4 4 4 4 3 3 3 2 2 2 2 1 1 1 1 1 1 2 2 2 3 3 3 4 4 4 5
6 6 6 6 6 7 7 8 8 8 8 8 8 8 8 8 8 8 8 8 7 7 7 7 6 6 5 5 5 4 4 3 4 4 3 3 3 4 4 4 4 4 3 3 3 3 3 3 3 3 3 3 2 2 2 1 1 1 1 1 1 1 1 2 2 2 3 4 4
5 5 6 6 6 6 6 7 7 7 7 7 8 8 8 8 8 8 8 8 7 6 6 6 6 6 6 5 5 4 3 2 3 3 3 3 3 4 4 4 4 4 3 3 3 3 4 4 3 3 3 3 3 3 2 2 1 1 1 0 0 1 1 1 1 0 1 2 3
5 4 5 5 5 6 6 6 6 6 6 6 7 7 7 7 7 6 6 6 6 6 6 6 6 6 6 5 5 4 3 2 2 2 3 3 3 3 3 4 5 4 4 3 3 4 4 4 4 4 3 3 3 2 2 2 1 1 1 1 2 2 2 3 2 2 1 1 1
4 4 4 4 5 6 6 6 6 6 6 6 6 6 6 6 6 5 5 5 5 5 5 4 5 5 5 4 4 4 3 3 2 2 2 2 3 3 3 3 4 5 4 4 4 4 4 4 3 3 3 3 3 2 2 2 1 1 1 2 2 2 3 3 3 3 2 2 1
4 4 4 4 5 5 6 6 6 6 6 6 6 6 6 6 5 5 5 5 5 5 4 3 3 3 3 3 3 4 4 3 3 2 2 2 2 3 2 2 3 4 4 4 5 6 5 4 3 3 3 3 3 3 2 2 2 2 2 2 2 2 3 3 3 3 3 2 2
5 5 5 5 5 6 6 6 6 6 6 6 6 6 6 5 5 5 5 5 4 4 3 3 2 2 2 2 3 3 3 4 4 3 3 2 2 2 2 2 2 2 3 4 7 9 8 7 5 4 3 3 3 3 2 2 2 2 2 2 2 2 3 3 3 3 3 3 3
6 6 6 6 6 6 6 7 7 6 6 6 6 5 5 5 5 5 5 4 4 3 3 3 2 2 2 2 2 2 2 3 4 4 4 3 2 2 1 1 1 1 2 5 8 9 9 9 8 6 5 3 3 3 2 2 2 2 2 2 2 2 2 2 3 3 3 3 3
6 6 6 6 7 7 7 7 6 6 6 6 6 6 5 5 4 5 5 4 4 3 2 2 2 2 3 2 3 2 2 2 2 3 4 4 3 2 2 1 1 1 3 6 8 7 7 8 8 7 6 4 3 3 2 2 2 2 2 2 2 2 1 1 2 3 3 3 3
7 7 7 7 7 7 7 6 6 6 7 7 7 6 5 5 5 5 5 4 3 3 2 2 2 2 2 2 3 3 3 2 2 3 3 4 4 3 2 1 1 2 4 6 6 6 5 6 6 6 6 5 3 3 3 3 2 2 2 1 1 1 1 1 1 2 3 3 3
7 7 7 7 7 7 7 6 7 7 7 7 6 6 5 5 5 5 5 4 3 3 2 2 2 2 2 2 3 3 3 3 2 3 3 3 3 2 2 2 2 3 4 4 4 4 4 4 4 3 3 4 4 3 3 3 2 2 1 1 1 1 1 1 1 2 2 3 3
8 8 8 8 8 7 7 7 7 7 7 6 6 6 6 6 6 5 5 5 4 4 3 2 3 3 3 3 3 3 3 2 2 3 3 3 3 2 2 2 2 2 3 4 3 3 3 3 2 2 1 2 5 4 3 3 2 2 1 1 1 1 1 1 2 2 2 2 3
8 8 8 8 8 8 8 7 7 7 6 6 6 6 7 7 6 6 5 5 4 3 3 3 4 4 4 3 3 3 3 2 2 2 3 4 3 3 2 2 2 2 3 4 3 3 2 2 2 2 1 2 5 4 3 3 2 2 1 1 1 1 1 2 2 3 3 3 3
8 8 8 9 8 8 8 7 7 6 6 6 7 7 7 7 6 5 5 4 4 4 3 4 4 4 4 3 3 3 3 3 3 3 3 3 3 3 2 2 2 2 3 4 3 3 3 2 2 2 2 1 4 4 3 3 2 2 1 1 1 2 2 2 2 3 4 4 4
8 8 8 9 8 8 7 7 6 6 6 6 7 7 7 6 5 4 4 3 4 4 4 5 5 5 5 4 3 3 3 3 3 3 3 3 3 3 2 2 2 3 4 4 4 4 3 3 3 3 3 2 4 4 3 3 2 1 1 1 2 2 3 3 3 4 4 4 4
8 8 8 8 8 8 7 7 6 6 6 6 6 7 6 6 5 4 4 4 3 4 4 5 5 5 5 4 4 3 3 3 3 3 2 2 2 3 2 2 2 3 4 5 5 4 4 4 4 4 3 2 4 4 3 3 2 1 0 1 2 2 3 3 3 4 4 4 4
9 9 8 8 8 7 7 7 6 6 6 6 6 6 6 6 6 5 4 4 3 3 3 3 3 3 3 3 3 3 3 3 3 3 2 2 3 3 2 2 2 3 5 5 5 5 5 5 6 5 4 5 5 4 3 3 2 1 0 1 2 3 3 3 3 3 3 3 3
9 9 9 8 8 7 7 7 7 7 7 7 7 6 6 5 5 5 4 4 4 3 3 2 2 2 2 2 2 2 3 4 3 3 3 3 3 3 3 2 2 3 5 5 5 6 6 6 6 5 4 5 4 3 3 3 2 1 0 1 2 3 3 3 3 3 3 2 3
9 9 9 8 8 8 8 8 8 8 8 8 7 7 6 6 5 4 4 4 4 3 3 3 3 3 3 3 3 2 3 3 4 4 4 4 4 4 3 3 3 3 5 5 5 6 6 6 6 4 4 5 4 3 3 2 2 1 0 1 2 3 3 3 3 3 3 3 3
9 9 9 9 9 8 8 8 8 9 9 8 7 6 6 6 5 4 4 5 4 4 4 3 3 3 3 4 3 3 2 3 4 4 5 5 5 5 4 4 3 3 4 5 5 6 6 6 6 5 4 5 4 4 3 2 1 1 0 2 2 3 3 2 2 2 3 4 6
10 10 10 9 9 9 9 9 9 9 9 7 6 6 5 5 4 4 4 4 4 4 4 4 4 4 4 4 3 2 2 2 3 4 5 6 6 6 6 5 4 4 4 5 5 6 6 5 7 5 4 6 5 4 3 3 2 1 0 1 2 3 3 3 2 2 3 5 7
10 10 10 10 10 10 9 9 9 9 8 7 6 6 6 5 5 4 4 3 3 4 4 5 5 4 4 5 4 3 2 2 2 3 5 6 7 8 8 5 4 4 4 5 6 6 6 5 7 6 4 6 5 4 4 3 2 1 1 1 2 2 3 3 3 2 3 4 6
10 10 11 10 10 10 10 10 9 8 7 6 7 6 6 5 4 4 3 3 3 3 4 4 5 4 5 5 5 4 4 3 3 3 4 5 6 7 7 5 4 4 4 4 6 6 6 6 8 6 3 5 4 4 4 3 2 1 1 2 1 1 2 3 3 3 3 3 3
Wind_Direction
130 132 135 139 139 138 135 132 132 130 129 130 129 129 126 121 119 119 122 128 133 135 137 138 136 132 129 128 133 138 146 156 164 166 163 155 147 136 122 106 97 91 89 89 91 92 94 95 91 83 73 73 73 65 52 49 80 84 84 83 87 90 91 91 91 90 89 89 96
134 135 137 140 140 137 133 131 130 128 126 124 124 122 120 117 115 115 114 117 122 125 125 124 121 123 127 133 139 147 156 166 167 159 144 130 119 109 101 96 94 95 97 99 102 104 106 107 104 104 101 95 85 75 65 52 82 85 85 84 89 94 95 96 99 101 103 104 110
137 139 141 142 141 139 136 133 130 127 124 120 117 113 111 110 111 111 111 108 106 107 110 113 116 122 128 134 143 155 166 172 155 137 122 112 105 101 99 98 97 99 102 107 109 109 108 106 107 110 112 107 98 93 88 66 78 85 89 94 99 100 101 106 113 114 111 106 103
139 141 142 141 139 137 134 130 127 126 123 119 115 110 107 106 108 109 109 106 103 105 111 120 124 128 133 139 152 167 177 170 142 126 117 112 108 106 103 99 97 97 99 102 102 102 99 97 98 100 103 103 100 100 99 88 79 81 87 101 101 104 108 115 120 117 109 100 90
139 140 138 136 132 128 124 122 124 124 124 122 119 116 112 110 111 112 113 115 118 122 128 130 132 136 143 151 164 171 168 149 130 120 116 114 112 107 102 96 96 97 98 98 98 97 95 91 89 88 90 94 94 96 98 94 86 83 76 60 72 97 109 116 118 111 103 99 88
135 132 129 126 124 121 119 121 124 125 126 125 124 123 122 121 123 126 128 131 132 133 133 133 133 138 146 154 154 143 128 116 115 114 114 115 110 104 100 100 104 107 110 109 105 101 98 97 93 89 86 83 77 67 60 79 93 92 83 58 49 72 98 113 119 114 107 105 99
126 126 124 124 123 123 123 125 126 126 126 125 126 128 130 131 134 136 137 136 135 135 135 132 132 136 139 136 119 106 100 98 96 98 101 102 98 98 100 105 109 113 114 112 107 105 103 104 104 99 92 87 78 55 36 62 93 97 93 80 36 54 95 120 127 121 116 117 114
120 122 123 124 124 125 127 128 129 129 129 130 132 133 133 135 136 135 134 132 133 133 131 126 129 132 132 125 117 113 111 108 103 101 101 101 100 102 104 107 104 102 102 105 107 107 106 103 105 104 103 97 92 74 54 67 90 99 106 119 73 12 60 123 126 126 126 128 127
121 123 124 125 127 128 130 131 132 133 134 134 134 134 135 135 135 133 132 132 131 128 124 122 128 131 131 130 128 128 128 126 126 125 123 120 122 124 125 119 111 106 103 105 110 111 108 101 97 98 101 104 106 100 82 80 97 107 119 141 144 16 10 51 99 118 126 130 138
126 127 127 128 130 131 132 132 133 134 134 133 133 134 135 136 134 133 133 131 127 124 124 129 134 136 138 138 138 139 140 139 138 138 139 141 144 146 145 137 127 122 119 117 116 113 109 102 96 90 85 88 104 108 99 89 106 115 124 134 128 91 51 35 76 104 122 135 157
128 130 131 132 134 134 133 133 133 132 132 131 132 132 134 135 133 132 130 127 126 129 135 142 145 146 147 147 148 149 150 149 149 150 154 159 159 156 148 140 133 130 128 127 120 113 108 102 99 92 80 64 83 97 102 97 105 109 109 67 71 73 75 48 74 103 130 154 180
126 128 131 132 134 133 132 132 131 130 129 129 130 130 130 131 132 131 130 129 132 137 143 150 152 151 151 150 152 153 155 156 157 160 162 164 153 138 127 123 126 128 129 128 120 112 108 106 106 101 89 62 65 88 107 113 110 109 106 86 64 60 55 18 76 109 134 150 191
124 126 127 129 130 129 127 126 124 125 126 127 127 128 128 129 132 132 133 134 137 140 145 150 149 146 143 143 145 149 153 157 158 157 151 139 119 107 105 111 119 125 127 128 119 115 114 114 116 116 112 98 89 113 134 136 129 127 126 126 107 91 106 256 155 125 122 118 169
123 125 127 128 128 125 123 120 119 120 122 123 124 125 126 128 132 133 135 137 139 141 142 143 140 138 136 136 139 143 148 152 151 142 126 109 101 102 106 115 124 129 131 130 123 121 124 127 130 131 133 136 147 167 173 160 149 145 145 147 151 172 205 210 169 141 126 122 143
126 127 129 129 128 126 123 121 120 120 121 122 124 126 127 129 132 133 134 136 139 140 141 141 141 141 141 143 147 151 157 164 161 149 127 107 103 108 117 126 132 136 137 135 131 131 134 138 141 144 147 154 167 179 185 177 165 160 159 161 168 183 196 195 171 157 151 147 153
130 131 132 132 131 129 127 126 125 125 126 127 128 129 129 130 131 133 135 138 139 141 144 148 151 154 158 165 169 172 176 180 174 160 142 124 118 121 129 136 143 146 146 143 141 139 140 142 146 150 156 163 171 178 182 180 173 169 170 174 179 188 195 193 177 172 169 165 168
133 135 136 136 135 134 133 132 132 133 133 134 134 134 133 133 135 139 144 146 148 152 157 163 164 167 172 180 182 182 181 178 173 165 155 147 142 142 146 151 156 156 154 149 148 148 148 146 145 149 155 161 166 169 171 170 169 173 180 188 194 201 205 201 188 182 179 178 184
135 137 138 139 138 137 137 137 137 138 138 138 139 139 139 140 144 148 153 157 160 164 169 173 175 177 179 182 182 180 176 172 172 170 164 157 154 154 157 160 161 159 155 151 152 154 156 155 148 142 139 140 141 142 144 148 159 179 198 210 216 220 220 217 203 193 188 189 194
136 138 139 139 140 140 139 140 140 141 142 143 143 144 146 149 153 157 161 167 171 173 173 175 178 180 179 177 176 175 175 170 168 166 162 156 155 156 158 159 156 152 150 149 150 152 152 149 142 134 126 121 118 120 129 149 170 191 207 216 223 228 230 230 219 208 200 198 195
136 137 138 139 139 140 140 141 143 145 146 147 148 150 154 158 161 164 167 172 175 175 174 175 176 176 175 171 169 170 170 162 157 154 152 150 152 155 155 151 145 142 141 141 141 141 140 139 137 134 132 131 133 140 153 169 180 192 202 210 221 233 244 248 237 222 207 198 186
136 137 137 138 138 139 140 142 145 147 148 150 153 156 159 162 166 169 171 172 171 172 173 174 173 171 168 165 163 162 156 140 137 139 143 144 150 152 150 142 138 135 133 132 133 135 136 138 140 142 143 143 144 150 157 163 167 167 165 115 40 16 9 4 349 294 205 186 175
136 136 136 137 138 139 141 143 145 147 149 152 156 158 161 164 168 169 168 165 164 166 169 172 169 166 163 161 157 149 135 111 110 120 131 137 142 142 138 134 134 134 135 137 137 137 138 142 147 149 150 145 144 145 146 144 133 105 69 44 33 29 28 29 29 30 37 83 156
137 136 136 137 139 140 141 142 144 147 149 152 156 158 161 164 164 162 158 157 161 164 166 168 165 162 159 154 144 134 121 104 96 96 106 117 123 127 130 132 136 141 146 150 147 144 144 146 152 156 152 144 142 143 145 139 122 99 71 46 32 26 23 24 25 26 26 23 1
139 139 139 140 140 141 141 142 144 147 151 155 158 160 160 160 155 152 150 153 157 159 160 160 156 151 143 134 127 124 123 121 116 108 100 97 108 118 126 133 142 150 157 162 161 159 157 154 156 157 155 148 149 150 150 140 127 112 95 69 42 26 16 10 11 10 6 356 337
143 142 142 142 143 143 144 146 149 153 157 160 159 158 156 154 151 149 149 152 153 153 152 149 141 128 117 111 111 118 125 133 135 131 122 104 99 103 113 125 144 158 169 176 176 173 168 162 160 159 159 157 155 150 142 130 124 119 111 95 68 41 19 4 357 353 346 336 320
146 146 147 148 148 149 151 154 157 159 160 159 157 157 157 157 153 151 150 152 153 152 148 143 138 130 121 111 110 113 122 134 139 137 132 124 112 102 99 114 150 183 198 202 199 191 180 168 164 161 160 158 152 143 131 121 116 114 110 104 92 71 41 8 347 336 329 322 312
151 152 154 154 153 156 160 163 162 161 160 159 159 161 161 159 154 152 152 155 156 152 145 140 141 138 134 121 126 131 138 139 136 134 132 131 128 127 131 156 199 221 223 221 221 212 196 178 171 166 161 155 149 143 135 124 110 104 101 103 102 97 81 12 321 313 313 313 309
159 160 160 158 161 164 166 164 163 163 164 164 165 164 162 156 153 155 157 159 155 150 145 142 137 128 123 127 142 149 151 146 136 130 128 129 134 140 154 180 214 232 233 230 232 228 215 193 184 174 164 156 145 135 130 121 109 102 99 107 118 127 149 212 265 285 296 302 304
165 164 163 164 168 170 169 167 169 170 170 169 166 162 158 155 157 159 161 159 157 159 161 158 136 122 125 146 154 151 146 142 139 133 130 130 136 148 166 188 219 242 248 246 244 239 227 209 202 197 179 147 126 117 114 112 111 111 114 128 146 163 192 228 252 268 279 285 291
168 167 167 170 172 173 174 176 176 175 171 167 162 158 158 159 163 165 166 166 170 172 171 153 142 145 154 163 156 148 143 146 142 138 137 140 149 162 184 202 227 253 267 273 267 256 240 218 207 231 258 91 107 108 105 106 111 117 129 150 171 195 222 244 258 263 265 266 274
171 170 171 173 174 177 180 181 178 173 168 164 161 161 162 166 171 174 175 175 176 172 160 143 149 157 164 162 150 146 146 148 146 147 150 154 162 174 194 217 239 260 273 280 275 266 252 230 212 245 280 69 103 106 105 106 114 125 140 167 202 226 239 247 252 253 252 250 252
173 173 174 175 178 181 182 180 176 171 167 164 164 166 169 174 178 180 179 176 169 161 154 153 160 163 162 153 147 145 147 150 161 169 172 168 171 179 195 219 242 257 265 268 267 264 254 238 222 242 257 107 108 108 111 115 123 135 154 191 220 232 239 245 250 250 248 242 236
175 175 175 177 180 181 181 178 174 170 168 168 170 173 176 180 181 181 179 175 166 162 163 169 170 168 165 161 159 159 162 167 175 181 184 179 173 174 184 215 244 255 257 256 261 261 255 242 229 236 238 169 116 113 119 119 125 133 160 217 235 238 240 245 250 252 249 243 232
177 177 178 180 180 180 179 177 173 171 170 172 177 180 182 182 183 183 182 180 172 169 170 175 173 171 166 163 162 166 173 177 177 180 180 177 167 166 177 218 251 259 256 249 258 261 256 244 233 231 222 134 117 119 126 119 116 118 157 260 260 256 254 254 257 257 253 244 232
178 179 180 182 181 179 178 176 174 172 173 178 184 187 188 187 186 186 185 180 173 168 170 175 171 163 155 148 150 158 167 172 175 177 174 167 159 162 178 219 256 261 255 246 258 262 258 247 237 224 192 118 115 118 122 113 108 104 277 283 283 281 280 281 280 274 263 249 233
181 180 181 182 181 179 178 177 175 176 179 184 188 190 192 193 192 189 185 177 167 163 165 169 159 151 149 147 148 161 170 172 172 173 171 163 159 164 180 212 249 259 255 250 259 264 262 251 238 221 182 123 118 114 111 106 107 111 281 292 292 293 295 300 303 301 291 273 246
183 182 181 181 181 181 180 178 178 181 185 189 190 191 192 193 194 192 184 173 164 164 168 166 165 169 173 176 177 179 177 170 165 165 167 168 166 169 179 201 234 255 260 256 262 266 266 257 242 212 155 115 117 114 108 106 107 105 314 296 292 292 294 300 308 311 307 296 272
185 183 182 182 183 183 183 181 183 187 190 192 192 191 190 190 190 189 185 176 169 169 173 173 179 185 189 186 180 177 173 169 165 165 167 173 174 173 175 190 220 245 257 256 259 264 266 261 251 224 170 129 129 126 122 118 115 110 303 294 295 296 298 303 313 316 311 302 293
184 184 184 184 184 185 185 186 189 191 192 192 191 190 188 189 189 189 185 178 170 170 173 179 187 193 192 183 172 165 164 174 173 171 172 177 181 179 176 181 207 232 247 249 251 258 263 262 259 239 185 139 138 136 133 129 126 129 292 296 303 306 308 312 320 320 313 305 307
183 184 184 185 185 186 187 189 192 193 192 190 189 189 189 189 188 186 181 172 166 168 174 182 189 190 187 179 169 165 165 176 187 185 183 184 188 186 182 178 196 219 238 243 244 251 259 263 264 250 199 137 138 136 132 128 125 130 290 293 305 312 315 316 320 321 316 308 313
183 184 185 186 186 186 187 190 193 192 191 189 190 189 188 187 183 176 170 164 165 170 176 182 185 185 182 178 170 166 168 177 194 202 199 192 196 191 185 174 188 207 229 242 242 248 256 263 267 258 215 139 140 135 129 123 128 158 246 270 280 297 309 315 320 322 319 312 312